RH
100 100 100 100 66 28 34 54 67 72 68 93 100 100 100 100 100 100 100 100 100 100 100 100 98 91 93 99 100 100 100 100 100 100 100 100 100 100 99 95 93 99 100 100 100 100 98 98 100 98 95 63 54 75
100 100 100 100 100 89 62 87 97 97 74 99 100 100 100 100 100 100 100 100 100 100 95 100 100 98 100 100 100 100 100 95 100 100 100 100 100 100 99 99 93 98 99 100 100 100 100 98 100 100 86 64 67 77
81 89 94 92 83 76 78 58 74 96 100 100 100 100 100 100 100 100 98 100 100 100 100 97 99 100 100 100 100 99 100 100 100 100 100 100 100 99 100 98 100 98 100 99 100 92 100 100 100 100 96 78 60 72
27 44 78 72 72 71 66 60 58 87 100 100 100 100 100 100 100 100 100 100 100 96 96 89 100 100 100 100 100 100 100 100 100 100 100 100 100 100 99 100 100 100 100 100 99 100 100 95 100 100 100 98 90 75
25 30 55 69 78 66 53 34 35 71 99 100 100 100 100 100 100 100 100 100 99 100 95 36 63 90 98 100 100 100 99 100 100 100 100 100 100 100 100 100 100 87 90 100 99 86 100 86 98 99 98 100 98 81
86 87 91 84 70 55 38 26 35 48 76 92 100 100 100 100 100 100 100 99 100 100 95 73 58 67 72 90 100 100 100 99 98 99 98 99 100 100 100 100 84 100 100 100 91 100 95 77 64 73 100 100 98 83
34 43 53 58 54 43 30 21 24 33 48 80 86 100 100 100 100 100 100 100 100 100 91 92 86 100 100 100 99 100 100 100 100 99 100 100 100 100 100 93 85 100 100 100 99 91 70 59 85 100 100 99 90 86
92 94 92 93 90 96 95 86 71 50 61 86 94 98 100 100 94 86 82 93 99 100 100 96 98 98 97 97 100 97 90 90 85 100 99 100 100 100 96 82 90 99 100 100 99 83 61 68 100 100 99 96 89 62
95 96 99 100 100 100 94 100 100 100 100 96 92 92 93 83 65 73 92 99 95 100 97 100 99 100 100 98 68 60 61 66 68 71 98 100 100 100 100 100 100 100 100 93 63 52 58 84 88 95 99 93 84 93
100 100 100 100 99 61 50 48 52 60 74 100 100 90 76 73 100 100 99 91 98 100 94 85 100 100 98 74 89 100 100 100 100 91 76 94 91 100 100 99 100 96 76 58 49 47 72 67 73 100 100 87 90 100
98 96 100 100 100 100 65 57 52 57 58 69 76 80 78 100 97 100 100 100 94 78 66 75 88 92 72 84 92 78 96 100 100 100 100 91 81 66 58 65 68 64 55 47 53 94 100 93 97 100 91 73 82 93
100 100 99 100 100 96 98 97 94 79 60 39 82 98 100 100 100 93 73 69 54 51 53 53 63 80 93 100 100 91 89 96 90 78 73 58 55 56 62 62 58 54 75 92 92 100 100 100 100 95 87 85 79 75
100 100 100 96 94 95 94 100 100 100 100 92 82 69 62 74 76 70 80 91 96 100 100 100 100 100 100 100 100 84 74 80 66 61 50 64 94 100 100 99 90 94 100 100 100 100 100 98 90 83 75 77 80 79
21 19 18 18 26 39 46 60 79 87 98 99 100 100 94 94 98 100 100 100 100 100 100 100 100 100 100 100 100 100 99 92 81 73 74 94 100 100 100 100 100 100 100 100 100 97 92 86 81 77 80 83 84 86
27 26 25 22 20 19 18 18 18 18 19 25 40 44 57 96 96 99 100 100 100 100 100 100 100 100 100 100 100 100 100 100 98 98 100 100 100 100 99 98 98 97 95 92 87 84 84 87 90 89 84 82 82 77
44 46 49 49 47 46 47 48 43 32 22 18 18 18 22 26 35 42 60 76 83 91 98 98 100 100 100 100 100 100 100 100 100 100 100 100 98 96 94 90 87 81 76 66 55 45 38 32 29 26 24 24 24 21
58 49 43 39 36 33 32 33 35 37 37 38 37 35 35 33 30 26 25 25 33 42 48 50 43 50 45 45 44 54 68 73 65 59 54 54 51 47 43 40 36 32 30 27 24 22 21 21 20 20 20 22 19 18
41 37 33 31 29 28 26 24 22 20 19 18 20 24 28 32 33 34 32 29 26 25 24 28 31 33 35 36 40 41 42 44 43 42 41 35 30 26 23 22 21 21 20 20 20 20 21 22 21 22 22 22 21 21
30 26 23 21 20 19 18 17 16 14 14 14 15 16 17 20 22 24 25 25 25 24 24 24 25 25 27 27 27 27 27 27 27 27 27 25 22 21 21 21 21 21 20 21 21 21 20 20 19 19 19 17 16 16
27 24 22 20 18 16 15 13 12 12 14 16 18 21 22 22 22 23 24 24 24 25 25 25 26 27 27 27 28 28 27 26 26 26 27 26 24 22 22 22 22 21 21 22 22 23 26 31 41 32 22 17 18 20
24 22 20 18 16 14 12 12 15 18 22 24 26 26 26 26 26 25 25 24 24 24 24 24 25 25 25 25 25 25 25 25 26 24 25 30 31 26 23 23 23 24 36 56 58 47 29 24 21 19 19 20 20 21
24 19 17 15 13 13 16 17 19 23 26 28 28 26 24 22 23 23 23 23 24 26 26 27 28 28 26 25 24 23 24 27 24 19 17 20 37 69 84 84 69 78 74 43 33 51 65 60 72 83 91 99 96 96
19 17 14 14 16 16 16 20 25 28 26 24 23 25 26 24 24 24 26 27 31 32 32 32 29 27 26 24 23 22 21 26 45 63 66 82 100 80 81 97 84 91 100 100 90 96 100 100 99 100 100 99 100 100
15 16 18 16 14 18 25 28 25 23 23 28 33 46 67 75 75 73 68 61 57 56 53 49 41 34 28 30 47 70 87 97 98 96 98 100 100 97 100 100 100 100 98 97 91 88 87 86 87 90 91 91 89 86
20 18 17 16 22 28 26 24 24 24 34 44 75 84 87 90 94 95 99 100 100 100 100 100 100 100 100 94 95 98 100 100 100 100 100 100 100 100 100 100 100 100 97 95 100 100 100 100 100 100 100 100 100 100
20 16 19 25 30 27 26 24 25 33 43 67 89 92 94 94 99 99 100 100 100 100 100 100 100 100 100 100 100 100 100 100 100 100 100 100 100 100 97 97 97 98 100 100 100 100 100 100 100 100 100 100 100 100
18 24 30 33 28 27 26 26 28 43 46 78 92 97 95 100 100 100 100 100 100 100 100 100 100 100 100 100 100 100 100 100 100 100 100 100 100 100 100 100 100 100 100 100 100 100 98 96 97 99 100 100 100 100
27 34 35 31 29 29 28 25 32 49 49 81 97 98 95 100 100 100 100 100 100 100 100 100 100 100 100 100 100 100 100 100 100 100 100 100 100 100 100 100 100 100 100 100 98 100 99 94 96 98 99 100 100 100
37 40 35 32 31 34 34 28 29 44 52 65 92 98 99 100 100 100 100 100 100 100 100 100 100 100 100 100 100 100 100 100 99 100 100 100 100 100 100 100 100 100 100 100 97 95 93 100 100 100 100 100 100 100
46 44 38 36 36 38 38 38 32 32 42 52 66 89 96 100 100 100 100 100 100 100 100 100 100 100 100 100 100 100 100 95 98 100 100 100 100 100 100 100 100 100 100 100 99 99 100 100 100 100 100 100 100 100
56 54 48 41 40 40 40 40 42 43 37 36 49 62 78 92 100 96 99 100 100 100 100 100 100 100 100 100 100 100 97 90 100 100 100 100 100 100 100 100 100 100 100 100 100 100 100 100 100 100 100 100 100 100
56 60 61 59 54 48 46 44 44 47 48 42 34 40 50 69 88 100 100 100 100 100 100 100 100 100 100 100 100 100 100 100 100 100 100 100 100 100 100 100 100 100 100 100 100 100 100 100 100 100 100 100 100 100
53 57 59 61 61 60 58 56 53 52 50 46 40 33 39 50 66 91 97 99 100 100 100 100 100 100 100 100 100 100 100 100 100 100 100 100 100 100 100 100 100 100 100 100 100 100 100 100 100 100 100 100 100 100
Wind_Speed
38 38 40 40 46 54 51 45 41 40 42 42 43 44 43 42 41 44 44 47 50 50 53 58 61 65 67 70 69 73 77 76 67 62 63 63 63 56 60 62 59 54 50 51 47 47 51 40 38 39 35 35 35 34
38 42 42 38 37 39 42 38 35 38 39 42 44 42 42 45 48 49 46 47 49 51 52 52 56 58 59 59 60 61 61 65 60 60 63 56 58 55 55 52 49 50 48 46 46 45 40 40 39 36 33 33 34 34
29 31 33 33 34 35 37 39 40 40 40 39 37 39 41 40 44 49 48 47 49 49 50 52 48 51 54 52 53 55 57 43 43 40 43 41 49 45 48 46 42 48 42 47 42 34 34 38 37 38 39 37 39 36
22 26 26 28 28 30 33 37 39 38 43 44 42 41 46 48 49 52 54 52 51 50 50 43 45 47 50 52 51 52 50 60 60 50 48 45 38 48 49 51 42 43 43 40 41 38 38 36 39 40 38 39 37 40
16 18 20 22 24 27 30 35 38 40 44 47 46 44 43 45 45 46 45 45 46 44 44 41 41 43 45 47 49 53 49 48 46 50 54 44 44 38 41 43 44 35 42 49 51 45 51 44 45 47 46 45 48 48
5 6 8 11 15 19 22 29 36 41 46 46 44 48 45 47 48 49 49 43 43 44 46 43 38 38 40 41 36 40 50 47 47 44 47 56 52 44 45 53 42 39 39 36 37 38 39 39 43 44 44 43 42 41
9 7 3 1 1 2 7 17 24 30 35 42 47 44 46 48 48 47 46 44 42 42 41 38 36 36 31 33 35 35 35 34 34 42 39 35 42 57 52 52 40 35 36 45 40 38 38 36 37 37 39 41 42 40
7 5 2 2 3 5 5 5 5 6 11 19 28 39 44 44 44 42 35 32 32 33 33 30 29 25 31 37 38 39 39 37 37 38 42 41 36 46 51 42 43 44 42 38 34 35 34 34 36 39 40 40 40 38
11 8 7 6 8 7 6 6 7 10 12 12 14 19 22 20 13 11 17 23 25 29 31 30 30 27 20 22 28 33 42 46 46 44 46 41 40 40 41 42 39 37 40 39 37 38 39 37 39 40 41 39 36 33
9 9 11 14 11 8 7 6 2 5 9 14 19 17 20 17 20 21 19 25 27 29 34 39 28 26 30 28 23 22 14 19 26 36 45 47 45 40 37 37 38 38 40 42 45 42 39 40 42 43 39 38 39 39
10 10 11 9 8 5 4 5 7 6 1 8 16 20 22 22 21 24 30 34 34 32 30 36 37 32 27 33 33 36 32 26 30 26 31 41 45 41 43 43 44 44 47 47 40 38 40 41 41 40 39 39 41 44
9 7 6 5 3 3 6 7 7 6 7 3 6 7 12 21 23 28 27 25 18 14 7 13 28 32 31 23 27 31 36 34 31 28 30 34 39 40 43 44 47 43 39 38 40 41 39 37 37 37 38 40 42 44
12 11 10 6 3 3 3 4 5 6 6 5 4 2 5 5 6 5 3 3 5 5 5 10 15 19 21 21 23 25 37 43 41 41 32 24 22 24 26 30 33 36 40 41 40 40 40 39 40 41 41 42 43 44
13 14 14 13 12 10 8 6 3 4 5 7 9 10 10 7 5 5 7 8 8 8 8 10 12 16 16 18 22 25 27 30 31 28 26 26 28 28 28 30 33 36 37 38 39 40 42 43 45 45 44 42 41 40
13 13 12 12 12 11 11 11 11 9 9 9 9 9 7 10 12 12 14 15 15 17 18 21 22 23 23 26 26 28 31 34 33 30 31 32 34 35 36 36 37 39 41 42 42 42 42 41 41 41 42 42 42 43
12 12 14 14 15 15 15 16 16 16 16 16 16 16 16 16 17 18 19 20 21 22 24 26 28 30 31 33 34 33 35 36 37 36 37 38 39 38 38 38 38 39 40 40 41 41 42 43 44 44 44 45 46 46
15 16 17 18 19 19 20 20 20 21 22 23 23 25 25 25 25 26 27 28 29 30 31 32 32 33 34 35 35 35 36 37 39 39 40 40 41 42 41 41 42 42 43 44 44 45 45 46 46 46 47 49 50 50
22 23 23 23 23 24 24 24 25 25 26 27 28 29 31 32 33 34 35 35 36 37 37 38 38 39 39 39 38 39 40 40 41 41 42 43 43 44 44 44 45 45 46 46 46 46 46 47 47 47 47 49 50 50
27 29 30 32 32 33 33 33 33 34 32 32 31 32 34 36 38 39 39 40 40 41 40 39 40 38 38 38 38 38 38 38 38 39 40 42 43 42 42 42 42 42 42 41 41 41 41 41 42 42 43 44 44 44
32 34 36 38 40 40 40 39 40 39 37 33 32 31 32 34 35 36 37 37 37 36 36 35 35 35 34 34 33 33 34 34 33 33 34 36 38 36 36 35 34 34 34 35 36 38 38 38 38 40 39 35 31 31
37 39 41 43 42 42 42 40 36 32 29 26 24 24 23 23 24 25 26 28 28 29 30 30 30 30 30 29 29 28 29 29 30 29 28 28 33 33 33 34 33 32 29 27 27 27 28 28 29 28 27 26 26 24
40 41 43 43 42 40 34 29 24 21 18 18 17 18 19 20 22 25 27 28 30 31 32 32 32 31 31 30 29 27 25 26 27 28 29 26 24 27 28 29 30 28 26 23 20 17 19 20 19 19 20 22 23 23
41 42 41 39 33 29 24 20 16 15 13 14 16 18 18 17 16 17 17 18 19 21 22 23 24 24 23 23 23 21 20 21 22 23 20 18 19 20 17 17 17 16 17 20 19 20 21 22 22 22 22 22 22 21
39 37 32 28 24 20 17 12 10 11 14 15 14 11 9 10 10 10 10 10 9 8 7 6 6 7 6 8 10 12 14 16 17 19 12 11 14 15 14 15 15 14 14 17 18 16 15 15 15 15 16 15 15 13
31 27 24 21 17 11 8 8 11 13 14 11 8 9 10 10 9 9 9 9 10 10 9 8 7 7 10 11 10 11 9 10 11 12 11 11 11 10 9 11 15 15 13 14 18 21 24 26 26 25 24 22 19 19
24 21 16 13 8 5 7 10 12 13 12 7 8 8 9 10 10 9 9 10 11 10 9 9 8 7 4 6 8 8 7 6 6 7 7 8 9 11 15 15 13 12 16 21 23 25 25 22 21 21 21 23 24 22
17 13 9 5 4 5 8 11 12 12 10 4 6 7 9 10 9 9 9 10 9 9 9 9 9 9 9 7 5 5 7 7 8 10 12 14 15 13 10 11 14 19 16 21 14 9 6 5 3 2 3 7 12 16
11 7 3 3 3 5 9 10 11 10 10 4 4 6 9 11 12 11 10 10 10 9 10 10 11 11 10 8 7 7 6 7 9 12 13 10 9 10 12 15 15 10 19 10 9 10 10 9 8 5 1 4 8 12
6 4 4 3 4 5 8 10 10 10 9 5 3 4 7 10 13 12 11 10 10 10 9 8 8 7 7 6 5 5 6 10 14 16 14 14 15 17 18 14 10 15 19 8 10 10 10 9 9 9 6 4 7 12
7 6 6 5 6 6 7 9 10 10 10 9 5 5 5 8 11 11 10 9 9 10 11 12 11 9 8 5 5 5 8 12 15 15 14 15 16 17 14 12 12 16 18 10 10 11 11 13 13 11 11 10 10 12
9 9 9 9 9 9 9 9 10 10 10 10 8 6 6 5 7 11 12 10 10 9 9 9 9 8 5 3 4 4 10 13 14 14 16 17 20 19 16 13 13 15 18 18 8 8 9 14 18 19 16 16 16 16
12 12 13 13 13 13 12 12 11 11 11 10 9 8 6 6 4 6 9 11 9 8 7 7 7 8 7 6 5 7 10 11 10 14 13 17 20 19 17 14 13 14 15 18 23 21 19 20 23 25 25 23 23 25
13 14 16 16 17 16 16 15 15 14 13 12 10 9 7 6 6 4 5 8 9 7 6 6 6 6 5 4 3 4 7 9 10 11 13 14 16 17 17 16 14 14 15 16 18 22 26 27 28 30 33 36 37 37
Wind_Direction
227 231 236 243 249 250 249 252 249 245 240 233 234 238 242 246 246 247 243 243 243 245 245 247 251 252 253 253 254 255 255 254 254 253 256 257 257 260 263 269 269 266 262 262 262 262 273 274 266 276 277 281 281 278
221 227 234 239 237 234 234 234 231 236 234 233 234 235 244 245 245 247 250 251 252 249 245 246 246 247 248 249 249 250 255 256 253 252 252 249 250 254 263 259 263 259 263 264 262 270 274 275 272 271 271 274 274 273
218 224 231 236 239 235 233 230 229 231 226 226 230 231 236 242 248 249 254 257 261 258 251 249 247 245 247 248 246 245 236 243 234 242 249 256 258 259 256 261 257 258 256 258 267 270 269 268 268 267 275 272 267 269
231 229 233 237 238 236 234 227 226 229 227 232 236 243 243 247 254 257 260 261 263 263 263 252 248 247 246 248 250 247 245 242 240 244 247 242 256 249 247 254 250 258 261 254 253 262 262 265 265 271 273 269 264 271
232 240 241 241 241 240 237 235 233 226 226 228 235 242 250 254 254 253 255 259 263 267 270 260 257 253 249 249 250 250 252 252 251 247 234 240 244 254 253 257 253 258 267 266 273 264 274 275 274 272 271 269 268 270
190 221 242 253 254 251 247 242 237 234 229 224 226 236 240 248 253 258 259 257 263 270 264 261 247 245 251 253 257 255 250 257 257 260 256 247 239 251 252 258 259 269 267 265 272 270 277 282 277 277 270 267 269 272
96 98 89 62 275 267 253 244 244 241 237 236 232 232 239 245 250 258 261 264 269 271 269 266 242 234 245 243 248 251 254 255 262 264 258 254 249 245 252 253 259 258 262 273 279 284 290 281 270 268 267 268 270 270
88 82 49 352 327 307 286 275 269 247 232 232 229 231 238 245 253 260 266 265 261 257 256 253 242 245 248 250 255 256 259 260 259 256 247 253 252 247 250 253 251 254 266 268 283 281 282 271 262 267 264 267 271 270
91 101 86 57 27 24 6 273 272 255 244 239 226 226 228 227 235 248 266 265 261 256 248 230 250 252 253 255 264 264 262 261 260 259 249 248 247 249 253 255 256 260 262 271 281 279 269 266 266 271 265 268 268 263
72 67 71 65 61 49 55 76 114 205 208 222 227 223 231 240 260 258 274 282 273 257 254 227 216 234 248 260 255 251 251 267 258 261 254 250 248 252 258 260 259 261 270 282 285 271 264 265 268 264 266 271 265 264
54 42 45 75 63 36 45 37 14 30 103 222 229 235 238 259 267 252 275 272 282 274 265 239 230 243 255 277 273 256 247 246 253 259 262 257 253 258 260 263 266 271 278 276 268 262 264 265 266 266 269 269 267 267
29 25 18 48 115 84 58 43 31 9 7 93 163 230 244 246 249 250 262 273 282 283 290 251 239 249 261 268 270 259 237 239 254 267 269 265 262 265 263 265 266 265 257 257 261 259 261 264 265 267 268 269 270 270
39 37 33 28 25 1 343 342 354 357 0 351 350 304 248 266 278 282 312 300 273 271 240 234 235 244 252 260 264 263 244 246 259 271 271 268 267 265 259 254 253 251 254 261 264 263 265 265 263 268 272 273 272 272
39 36 36 36 39 38 33 33 346 314 294 296 297 294 297 311 327 309 283 277 283 282 279 278 279 275 265 263 262 267 264 261 262 266 271 270 266 268 266 263 261 259 259 263 265 266 267 269 270 272 272 272 270 269
27 24 18 13 5 0 357 348 341 337 330 320 306 305 305 283 279 274 269 268 268 267 267 266 264 263 264 265 264 264 268 269 273 279 276 274 273 274 274 273 271 270 269 270 272 273 273 273 273 273 272 271 270 269
354 348 341 336 333 329 324 319 313 308 304 299 298 295 290 283 279 277 273 268 263 261 263 263 264 265 265 263 264 266 268 273 277 277 275 274 273 274 274 274 275 275 275 275 275 274 274 273 272 272 272 271 269 268
333 331 328 324 321 320 316 312 307 302 299 296 293 286 286 281 278 275 274 273 273 271 269 270 270 269 268 269 269 270 271 271 272 275 276 277 279 280 280 280 279 278 277 277 276 275 274 273 272 271 269 268 269 269
326 325 322 319 317 315 314 311 306 303 299 292 285 280 277 275 274 273 271 271 270 270 270 270 269 269 270 270 271 273 274 275 276 278 279 279 279 280 280 280 280 279 278 277 277 275 274 273 273 272 271 269 269 268
321 323 323 323 322 320 318 314 311 306 301 293 284 277 271 269 268 268 268 270 270 272 272 273 273 274 274 274 275 276 276 277 278 278 278 278 279 281 282 281 280 278 279 278 278 277 276 276 276 274 273 272 273 273
321 321 321 321 319 317 316 312 308 303 299 294 286 278 273 271 271 272 273 273 274 275 275 275 274 275 275 276 277 277 279 280 280 279 280 282 283 284 283 282 281 280 280 278 277 277 276 276 275 274 276 277 275 272
319 320 318 318 316 315 313 310 307 303 299 295 291 286 285 282 280 278 278 276 276 275 274 274 274 275 276 277 278 280 281 283 283 283 282 282 285 288 288 288 287 286 286 284 279 276 276 273 271 275 276 273 271 270
319 318 318 317 315 313 312 312 309 307 303 301 300 299 298 295 291 287 284 280 276 275 273 272 273 274 274 275 277 277 280 284 286 287 288 288 285 284 284 284 289 291 289 287 284 280 274 274 275 273 270 269 272 272
316 317 316 315 313 314 315 314 314 314 316 316 316 313 309 307 308 307 302 295 289 284 280 278 276 274 275 276 277 279 282 285 286 290 297 300 292 283 288 285 286 289 289 289 289 286 282 279 277 274 270 268 268 269
315 314 314 315 315 318 319 322 326 329 328 328 327 334 342 347 351 358 4 6 7 2 354 338 317 303 287 276 283 286 288 286 286 296 317 303 296 302 306 300 299 298 292 288 292 288 280 276 273 269 266 263 260 263
312 314 314 316 317 322 328 336 339 337 337 341 352 353 353 353 355 0 5 10 11 9 4 359 350 330 321 326 332 331 328 312 310 311 316 314 312 315 317 315 308 308 306 297 292 288 284 279 277 272 266 259 257 253
310 312 313 315 318 322 338 342 343 343 344 349 359 2 2 359 359 2 4 4 3 4 2 355 351 354 344 319 322 333 352 10 18 12 7 3 346 325 316 314 313 310 307 306 303 296 291 285 275 271 264 253 244 239
310 312 311 310 316 331 340 341 343 346 349 342 2 8 9 7 5 5 3 0 2 3 4 6 8 13 17 28 42 43 50 48 27 5 347 338 331 331 328 324 323 323 324 328 330 340 353 356 340 289 246 220 213 212
306 300 284 291 311 339 347 348 351 353 353 339 355 8 9 9 11 12 12 12 12 14 11 7 6 11 19 29 45 52 39 14 2 353 347 350 358 351 342 335 339 330 350 19 39 43 37 37 35 33 62 173 183 185
276 263 260 268 298 334 348 350 353 356 355 344 316 345 0 8 11 12 12 13 15 17 19 29 33 29 23 27 40 31 18 13 4 7 17 15 6 358 353 358 19 22 16 66 51 57 56 45 42 42 53 121 157 167
253 250 258 264 279 307 328 342 347 352 355 351 327 300 325 351 6 13 11 9 12 15 19 20 18 19 23 40 52 41 30 21 21 21 20 15 13 8 23 36 48 39 33 71 68 70 48 46 55 58 62 83 111 136
255 255 259 264 272 283 297 309 321 333 338 346 346 321 298 313 349 5 10 12 14 16 12 16 25 28 30 47 54 34 35 27 29 27 33 32 21 28 44 56 59 55 48 50 60 52 43 52 67 68 77 88 105 112
264 262 263 266 270 276 281 289 297 306 315 321 323 327 313 283 298 350 3 5 0 2 9 17 25 27 34 41 55 49 42 38 35 32 33 33 25 32 54 57 63 66 67 65 64 71 78 81 80 76 80 92 105 109
275 270 267 267 268 271 275 279 284 289 294 300 303 302 308 293 265 277 332 353 3 13 15 18 25 29 31 34 60 55 49 43 42 40 39 40 38 38 54 64 68 75 78 80 78 76 77 84 88 87 89 91 96 102